Weather Service Report


724 
ASUS43 KLSX 281010
RWRMO 

WEATHER SUMMARY FOR MISSOURI
NATIONAL WEATHER SERVICE SPRINGFIELD MO
500 AM CDT TUE MAR 28 2017

NOTE: "FAIR" INDICATES FEW OR NO CLOUDS BELOW 12,000 FEET WITH NO
       SIGNIFICANT WEATHER AND/OR OBSTRUCTIONS TO VISIBILITY.
       CURRENT SKY AND/OR WEATHER CONDITIONS ARE NOT AVAILABLE FOR
       CHILLICOTHE AND FARMINGTON.

MOZ001>031-035>038-043-044-053-054-281100-
...NORTHERN AND WESTERN MISSOURI...
  
CITY           SKY/WX    TMP DP  RH WIND       PRES   REMARKS
KANSAS CTY INT CLOUDY    48  47  96 NE9       30.01F                  
KANSAS C DTWN  CLOUDY    50  46  86 NE9       30.00F                  
LEE'S SUMMIT   CLOUDY    48  47  96 NE7       30.01F                  
ST JOSEPH      CLOUDY    47  46  97 CALM      30.02S                  
CHILLICOTHE      N/A     48  46  93 N3        30.04S                  
KIRKSVILLE     CLOUDY    47  47 100 N6        30.03R FOG              
     
$$
MOZ066>068-077>081-088>096-101>105-281100-
...SOUTHWEST MISSOURI...
  
CITY           SKY/WX    TMP DP  RH WIND       PRES   REMARKS
SPRINGFIELD    CLOUDY    51  49  92 NE5       29.98R                  
JOPLIN         CLOUDY    50  50 100 NE3       30.00R                  
BRANSON        CLOUDY    50  48  93 CALM      29.99R                  
               
$$
MOZ032>034-039>042-045>050-055>058-069>072-281100-
...CENTRAL MISSOURI...  
  
CITY           SKY/WX    TMP DP  RH WIND       PRES   REMARKS
COLUMBIA       CLOUDY    51  50  96 NE6       30.01R                  
JEFFERSON CITY CLOUDY    54  49  83 N3        30.01R                  
ROLLA          CLOUDY    51  51 100 NE8       29.98R                  
SEDALIA        CLOUDY    50  49  96 N8        30.02S FOG              
WHITEMAN AFB   DRZL/FOG  49  49 100 N8        30.00S VSB 1            
WARRENSBURG    CLOUDY    46  46 100 N7        30.01F FOG              
OSAGE BEACH    MIX PCPN N/A N/A N/A CALM      30.00S                  
               
$$
MOZ051-052-059>065-281100-
...EAST CENTRAL MISSOURI...
  
CITY           SKY/WX    TMP DP  RH WIND       PRES   REMARKS
ST LOUIS INTL  DRIZZLE   54  50  86 N7        29.98R                  
SPIRIT OF STL  CLOUDY    53  50  89 N3        29.99R                  
ST CHARLES     CLOUDY    52  50  93 N8        29.98R                  
                   
$$
MOZ072>076-082>087-097>100-106>115-281100-
...SOUTH CENTRAL AND SOUTHEAST MISSOURI...
  
CITY           SKY/WX    TMP DP  RH WIND       PRES   REMARKS
CAPE GIRARDEAU CLOUDY    54  51  90 NW6       29.95R                  
FARMINGTON     CLOUDY    53  51  93 N3        29.98R                  
POPLAR BLUFF   CLOUDY    52  51  97 CALM      29.97R                  
WEST PLAINS    CLOUDY    52  50  93 N3        29.98S                  
                                       
$$
  

Return to Home page


Western Regional Climate Center, wrcc@dri.edu